Weather observations for the past three days for
Plattsburgh International Airport
Metric (Imperial)
Date Time (edt) Wind (kph) Vis. (km) Weather Sky Cond. Temperature (ºC) Relative Humidity Wind Chill (°C) Heat Index (°C) Pressure Precipitation (cm)
Air Dwpt 6 hour altimeter (cm) sea level (mb) 1 hr 3 hr 6 hr
Max. Min.
15 12:53 Calm 16.09 Mostly Cloudy BKN050 BKN055 28.9 20.6 61% 31 75.67 1008.7
15 11:53 Vrbl 6 16.09 Mostly Cloudy BKN046 BKN055 30 21.1 59% 33 75.69 1008.8
15 10:53 Calm 16.09 Partly Cloudy SCT050 27.2 21.1 69% 29 75.72 1009.3
15 09:53 S 13 16.09 Partly Cloudy FEW033 SCT055 27.2 20.6 67% 29 75.72 1009.5
15 08:53 SE 17 16.09 Fair CLR 23.3 19.4 79% 75.74 1009.7
15 07:53 SE 7 16.09 A Few Clouds FEW034 23.9 18.9 23.9 19.4 74% 25 75.74 1009.7
15 06:53 Calm 16.09 Overcast OVC075 21.7 18.9 84% 75.77 1010.0
15 05:53 S 6 16.09 Overcast BKN047 OVC065 22.2 18.9 82% 75.79 1010.3
15 04:53 Calm 16.09 Overcast OVC060 20.6 18.3 87% 75.74 1009.7
15 03:53 Calm 16.09 Overcast FEW065 OVC090 20.6 17.8 84% 75.72 1009.4
15 02:53 Calm 16.09 Overcast OVC085 20 18.3 90% 75.74 1009.5
15 01:53 Calm 16.09 Overcast FEW075 OVC095 20 17.8 25 18.3 87% 75.77 1009.9
15 00:53 Calm 16.09 Fair CLR 18.9 17.8 93% 75.82 1010.6
14 23:53 Calm 16.09 Mostly Cloudy BKN095 20 17.8 87% 75.84 1011.0
14 22:53 Calm 16.09 Fair CLR 21.1 17.8 82% 75.87 1011.3
14 21:53 Calm 16.09 Fair CLR 21.7 18.9 84% 75.9 1011.6
14 20:53 Calm 16.09 Fair CLR 23.3 19.4 79% 75.9 1011.7
14 19:53 S 6 16.09 Fair CLR 25 18.9 31.1 25 69% 26 75.87 1011.4
14 18:53 S 7 16.09 Fair CLR 27.2 18.3 58% 28 75.9 1011.8
14 17:53 SE 11 16.09 Fair CLR 28.3 18.3 55% 29 75.9 1011.9
14 16:53 SE 19 16.09 Fair CLR 28.3 18.3 55% 29 75.92 1012.2
14 15:53 SE 20 16.09 Fair CLR 28.3 17.2 51% 29 75.97 1012.9
14 14:53 SE 19 G 30 16.09 A Few Clouds FEW070 28.3 17.2 51% 29 76.05 1013.8
14 13:53 W 7 16.09 A Few Clouds FEW070 30.6 15 30.6 22.8 39% 30 76.1 1014.4
14 12:53 Calm 16.09 A Few Clouds FEW060 30 16.1 43% 30 76.15 1015.1
14 11:53 Vrbl 7 16.09 Fair CLR 29.4 16.7 46% 30 76.17 1015.6
14 10:53 SE 15 16.09 Fair CLR 25.6 21.1 76% 27 76.2 1016.0
14 09:53 SE 13 16.09 Fair CLR 24.4 20.6 79% 25 76.23 1016.3
14 08:53 SE 13 16.09 Fair CLR 23.3 19.4 79% 76.25 1016.5
14 07:53 S 7 16.09 Fair CLR 22.2 18.9 22.8 16.7 82% 76.25 1016.7
14 06:53 SE 6 16.09 Fair CLR 19.4 18.3 93% 76.25 1016.6
14 05:53 Calm 12.87 Fair CLR 17.2 16.7 97% 76.25 1016.6
14 04:53 Calm 16.09 Fair CLR 17.2 16.7 97% 76.28 1016.7
14 03:53 Calm 16.09 Fair CLR 17.2 16.7 97% 76.25 1016.6
14 02:53 Calm 12.87 Fair CLR 17.2 16.7 97% 76.25 1016.5
14 01:53 Calm 16.09 Fair CLR 18.3 17.2 23.3 17.8 93% 76.28 1017.0
14 00:53 Calm 16.09 Fair CLR 18.3 17.2 93% 76.3 1017.3
13 23:53 Calm 16.09 Fair CLR 18.9 18.3 96% 76.33 1017.4
13 22:53 Calm 8.05 Fog/Mist CLR 20 19.4 96% 76.33 1017.5
13 21:53 Calm 16.09 Fair CLR 20.6 20 96% 76.33 1017.7
13 20:53 Calm 16.09 Fair CLR 21.7 20 90% 76.33 1017.4
13 19:53 Calm 16.09 Fair CLR 23.9 20.6 27.2 23.9 82% 24 76.33 1017.4
13 18:53 Calm 16.09 Fair CLR 26.1 18.9 65% 27 76.33 1017.3
13 17:53 SE 6 16.09 A Few Clouds FEW110 26.7 19.4 64% 28 76.3 1017.2
13 16:53 SE 7 16.09 A Few Clouds FEW075 FEW100 25 19.4 71% 26 76.33 1017.4
13 15:53 E 9 16.09 Mostly Cloudy FEW070 BKN110 25.6 20.6 74% 27 76.35 1017.7
13 14:53 SE 20 16.09 Partly Cloudy FEW055 SCT080 SCT090 24.4 20.6 79% 25 76.35 1017.9
13 13:53 SE 11 16.09 Mostly Cloudy FEW044 SCT060 BKN090 25 20 26.7 22.2 74% 26 76.38 1018.1 0.18
13 12:53 SE 19 16.09 Fair CLR 26.1 20.6 72% 28 76.43 1018.8 0.03
13 11:53 S 7 2.41 Light Rain FEW039 SCT055 BKN080 24.4 20.6 79% 25 76.45 1019.3 0.15
13 10:53 SE 15 16.09 Partly Cloudy SCT100 25.6 20.6 74% 27 76.45 1019.3
13 09:53 SE 7 16.09 Partly Cloudy SCT085 23.9 21.1 84% 24 76.48 1019.6
13 08:53 SE 6 16.09 Fair CLR 23.3 20.6 85% 76.5 1020.0
13 07:53 Calm 16.09 Fair CLR 22.2 19.4 22.2 18.9 84% 76.5 1020.0
13 06:53 Calm 16.09 Fair CLR 21.1 19.4 90% 76.53 1020.2
13 05:53 Calm 8.05 Fog/Mist CLR 19.4 18.3 93% 76.5 1019.9
13 04:53 SW 6 16.09 Mostly Cloudy FEW080 BKN100 20 18.9 93% 76.48 1019.7
13 03:53 SW 7 14.48 Mostly Cloudy SCT075 BKN090 20 19.4 96% 76.48 1019.4
13 02:53 Calm 14.48 Fair CLR 20 19.4 96% 76.48 1019.4
13 01:53 W 7 16.09 A Few Clouds FEW090 20.6 20 25 20 96% 76.48 1019.5
13 00:53 Calm 16.09 Mostly Cloudy BKN095 21.7 20.6 94% 76.5 1019.8
12 23:53 Calm 16.09 Fair CLR 21.7 21.1 96% 76.53 1020.1
12 22:53 W 6 16.09 Fair CLR 22.8 21.1 90% 76.5 1020.0
12 21:53 Calm 16.09 Partly Cloudy FEW075 SCT090 22.8 21.7 94% 76.5 1019.8
12 20:53 Calm 16.09 Partly Cloudy SCT085 23.3 21.1 88% 76.45 1019.2
12 19:53 S 6 16.09 Overcast OVC085 24.4 20.6 26.1 24.4 79% 25 76.45 1019.2
12 18:53 E 6 16.09 Fair CLR 25.6 20 71% 27 76.45 1019.2
12 17:53 Calm 16.09 Partly Cloudy SCT085 26.1 19.4 67% 27 76.45 1019.1
12 16:53 E 6 16.09 Overcast SCT040 BKN047 OVC075 25 19.4 71% 26 76.48 1019.6
12 15:53 Calm 16.09 Mostly Cloudy SCT040 BKN085 25.6 19.4 69% 27 76.5 1020.0
12 14:53 E 7 16.09 Mostly Cloudy BKN034 25 19.4 71% 26 76.53 1020.2
12 13:53 E 9 16.09 Mostly Cloudy FEW028 BKN036 BKN060 25 19.4 25.6 21.1 71% 26 76.53 1020.2
Date Time (edt) Wind (kph) Vis. (km) Weather Sky Cond. Air Dwpt Max. Min. Relative Humidity Wind Chill (°C) Heat Index (°C) altimeter (cm) sea level (mb) 1 hr 3 hr 6 hr
6 hour
Temperature (ºC) Pressure Precipitation (cm)